Hourly Data Report for August 15, 2009

All times are specified in Local Standard Time (LST). Add 1 hour to adjust for Daylight Saving Time where and when it is observed.

EMERSON AUT
MANITOBA

49°00'00.000" N
97°14'15.000" W
242.00 m
5020882
71560
WEX

Download Data

Hourly Data (August 2009)
Hourly Data Report for August 15, 2009
Temp Definition
°C
Dew Point Temp Definition
°C
Rel Hum Definition
%
Wind Dir Definition
10's deg

Wind Spd Definition
km/h
Visibility Definition
km
Stn Press Definition
kPa
Hmdx Definition


Wind Chill Definition


Weather Definition


TIME
00:00 17.5 16.7 95 2 15   98.11     LegendNANA
01:00 17.4 16.7 96 2 19   97.99     LegendNANA
02:00 17.7 16.8 94 1 9   98.01     LegendNANA
03:00 17.3 16.6 96 1 9   97.99     LegendNANA
04:00 17.4 16.7 96 35 13   98.01     LegendNANA
05:00 17.6 16.9 96 9 6   98.03     LegendNANA
06:00 18.3 17.8 97 5 20   97.74     LegendNANA
07:00 18.2 17.7 97 4 11   97.79     LegendNANA
08:00 18.9 18.3 96 6 15   97.82     LegendNANA
09:00 19.7 18.7 94 9 11   97.76     LegendNANA
10:00 20.2 19.1 93 17 6   97.76 27   LegendNANA
11:00 20.9 18.8 88 24 9   97.68 28   LegendNANA
12:00 20.9 19.2 90 15 7   97.62 28   LegendNANA
13:00 21.4 19.0 86 16 9   97.55 28   LegendNANA
14:00 22.2 19.2 83 20 15   97.52 29   LegendNANA
15:00 23.8 19.9 79 21 19   97.48 31   LegendNANA
16:00 23.5 19.4 78 23 15   97.46 31   LegendNANA
17:00 22.8 19.0 79 30 15   97.51 30   LegendNANA
18:00 22.9 18.8 78 32 9   97.53 30   LegendNANA
19:00 21.5 19.2 87 34 9   97.53 28   LegendNANA
20:00 19.8 18.5 92 4 6   97.57     LegendNANA
21:00 17.9 17.1 95 18 4   97.63     LegendNANA
22:00 16.9 16.5 97 20 7   97.61     LegendNANA
23:00 16.4 16.1 98 19 7   97.61     LegendNANA

Notes on Data Quality.

Legend

  • E = Estimated
  • M = Missing
  • NA = Not Available
  • ‡ = Partner data that is not subject to review by the National Climate Archives
Date modified: